Back to catalog

FENGYUN 1C DEB

AlivePO
NORAD 37453·DEBRIS·🇨🇳 China

Launched May 10, 1999 from Taiyuan Satellite Launch Center

Loading…

Next Passes (next 24 hours)

TLE

AgingSource: Space-Track

Epoch: Sep 9, 2026, 11:21 UTC

1 37453U 99025EHX 26252.47296162  .00001643  00000-0  12483-2 0  9995
2 37453  97.6393 138.2579 0355706 224.6606 132.5387 13.68861072933273

Track FENGYUN 1C DEB in real time with AllMySat

Download on the App Store